カタログに戻る

CZ-6A DEB

運用中PO
NORAD 61112·DEBRIS·🇨🇳 China

打ち上げ Aug 6, 2024 から Taiyuan Satellite Launch Center

Loading…

次のパス (今後24時間)

TLE

最新Source: Space-Track

元期: Sep 14, 2026, 06:51 UTC

1 61112U 24140PE  26257.28550954  .00002916  00000-0  63081-3 0  9991
2 61112  89.0285 262.9756 0060951 292.7384  66.7392 14.56888485109334

AllMySatでCZ-6A DEBをリアルタイム追跡

Download on the App Store